Council Bluffs, IA

6:08 AM CST on February 11, 2016 (GMT -0600)
Council Bluffs Municipal

Weather History for KCBF - June, 2014

Change the Weather History Date:

Tuesday, June 17, 2014

  Actual Average Record
Temperature  
Mean Temperature 76 °F -  
Max Temperature 89 °F 79 °F 89 °F (1997)
Min Temperature 64 °F 60 °F 50 °F (1999)
Cooling Degree Days 12    
Growing Degree Days 26 (Base 50)    
Moisture  
Dew Point 71 °F    
Average Humidity 78    
Maximum Humidity 94    
Minimum Humidity 62    
Precipitation  
Precipitation 0.00 in - - ()
Sea Level Pressure  
Sea Level Pressure 29.74 in    
Wind  
Wind Speed 19 mph (SSE)    
Max Wind Speed 26 mph    
Max Gust Speed 36 mph    
Visibility 10 miles    
Events      
Averages and records for this station are not official NWS values.
T = Trace of Precipitation, MM = Missing Value Source: NWS Daily Summary

Daily Weather History Graph

Daily Weather History Graph

Search for Another Location

Airport or City:

Trip Planner

Search our weather history database for the weather conditions in past years. The results will help you decide how hot, cold, wet, or windy it might be!

Date:

Astronomy

Jun. 17, 2014 Rise Set
Actual Time 5:49 AM CDT 8:58 PM CDT
Civil Twilight 5:15 AM CDT 9:32 PM CDT
Nautical Twilight 4:32 AM CDT 10:15 PM CDT
Astronomical Twilight 3:40 AM CDT 11:07 PM CDT
Moon No Moon Rise 11:07 AM CDT (6/17)
Length of Visible Light 16h 16m
Length of Day
15h 09m
Waning Gibbous, 73% of the Moon is Illuminated
Jun 17
Waning Gibbous
Jun 19
Last Quarter
Jun 27
New
Jul 5
First Quarter
Jul 12
Full

Hourly Weather History & Observations

Time (CDT) Temp. Heat Index Dew Point Humidity Pressure Visibility Wind Dir Wind Speed Gust Speed Precip Events Conditions
12:15 AM 78.8 °F - 73.4 °F 83% 29.68 in 10.0 mi South 15.0 mph 25.3 mph N/A   Clear
12:35 AM 78.8 °F - 73.4 °F 83% 29.68 in 10.0 mi South 23.0 mph 29.9 mph N/A   Unknown
1:15 AM 78.8 °F - 73.4 °F 83% 29.75 in 10.0 mi NNE 10.4 mph - N/A   Scattered Clouds
1:35 AM 75.2 °F - 69.8 °F 83% 29.75 in 10.0 mi East 13.8 mph 21.9 mph N/A   Overcast
1:55 AM 68.0 °F - 64.4 °F 88% 29.78 in 10.0 mi NE 20.7 mph 26.5 mph N/A   Overcast
2:15 AM 66.2 °F - 62.6 °F 88% 29.79 in 10.0 mi NE 15.0 mph 24.2 mph N/A   Overcast
2:35 AM 66.2 °F - 62.6 °F 88% 29.81 in 10.0 mi NE 17.3 mph 29.9 mph N/A   Overcast
2:55 AM 68.0 °F - 64.4 °F 88% 29.79 in 10.0 mi ENE 24.2 mph 34.5 mph N/A   Overcast
3:15 AM 68.0 °F - 64.4 °F 88% 29.82 in 10.0 mi ENE 19.6 mph 28.8 mph N/A   Overcast
3:35 AM 68.0 °F - 64.4 °F 88% 29.83 in 10.0 mi ENE 16.1 mph 26.5 mph N/A   Overcast
3:55 AM 66.2 °F - 64.4 °F 94% 29.83 in 10.0 mi East 19.6 mph 32.2 mph N/A   Overcast
4:15 AM 66.2 °F - 64.4 °F 94% 29.83 in 10.0 mi East 19.6 mph 28.8 mph N/A   Overcast
4:35 AM 66.2 °F - 64.4 °F 94% 29.83 in 10.0 mi ESE 17.3 mph 26.5 mph N/A   Overcast
4:55 AM 66.2 °F - 64.4 °F 94% 29.83 in 10.0 mi ESE 18.4 mph 26.5 mph N/A   Overcast
5:15 AM 64.4 °F - 62.6 °F 94% 29.83 in 10.0 mi ESE 17.3 mph 25.3 mph N/A   Overcast
5:35 AM 64.4 °F - 62.6 °F 94% 29.81 in 10.0 mi ESE 21.9 mph 29.9 mph N/A   Unknown
5:55 AM 66.2 °F - 62.6 °F 88% 29.79 in 10.0 mi SE 20.7 mph 32.2 mph N/A   Overcast
6:15 AM 66.2 °F - 62.6 °F 88% 29.78 in 10.0 mi SE 21.9 mph 32.2 mph N/A   Overcast
6:35 AM 66.2 °F - 62.6 °F 88% 29.78 in 10.0 mi SE 20.7 mph 28.8 mph N/A   Scattered Clouds
6:55 AM 66.2 °F - 62.6 °F 88% 29.78 in 10.0 mi SE 20.7 mph 28.8 mph N/A   Clear
7:35 AM 68.0 °F - 62.6 °F 83% 29.77 in 10.0 mi SE 21.9 mph 28.8 mph N/A   Clear
7:55 AM 69.8 °F - 62.6 °F 78% 29.77 in 10.0 mi SE 23.0 mph 29.9 mph N/A   Clear
8:15 AM 71.6 °F - 62.6 °F 73% 29.76 in 10.0 mi SE 24.2 mph 32.2 mph N/A   Clear
8:35 AM 71.6 °F - 62.6 °F 73% 29.76 in 10.0 mi SSE 26.5 mph 34.5 mph N/A   Clear
8:55 AM 73.4 °F - 64.4 °F 73% 29.76 in 10.0 mi SSE 23.0 mph 35.7 mph N/A   Clear
9:15 AM 75.2 °F - 66.2 °F 73% 29.76 in 10.0 mi SE 21.9 mph 33.4 mph N/A   Clear
9:35 AM 75.2 °F - 68.0 °F 78% 29.75 in 10.0 mi SSE 23.0 mph 32.2 mph N/A   Clear
9:55 AM 77.0 °F - 68.0 °F 74% 29.75 in 10.0 mi SSE 25.3 mph 31.1 mph N/A   Clear
10:15 AM 78.8 °F - 69.8 °F 74% 29.74 in 10.0 mi South 24.2 mph 33.4 mph N/A   Clear
10:35 AM 80.6 °F 84.6 °F 71.6 °F 74% 29.73 in 10.0 mi SSE 20.7 mph 29.9 mph N/A   Clear
10:55 AM 80.6 °F 84.6 °F 71.6 °F 74% 29.74 in 10.0 mi SSE 25.3 mph 33.4 mph N/A   Clear
11:15 AM 80.6 °F 85.4 °F 73.4 °F 79% 29.73 in 10.0 mi South 19.6 mph 29.9 mph N/A   Partly Cloudy
11:35 AM 80.6 °F 84.6 °F 71.6 °F 74% 29.73 in 10.0 mi South 18.4 mph 29.9 mph N/A   Mostly Cloudy
11:55 AM 82.4 °F 88.2 °F 73.4 °F 74% 29.73 in 10.0 mi South 20.7 mph 29.9 mph N/A   Overcast
12:15 PM 82.4 °F 88.2 °F 73.4 °F 74% 29.73 in 9.0 mi South 18.4 mph 27.6 mph N/A   Overcast
12:35 PM 82.4 °F 88.2 °F 73.4 °F 74% 29.72 in 10.0 mi South 21.9 mph 29.9 mph N/A   Overcast
1:15 PM 86.0 °F 95.1 °F 75.2 °F 70% 29.71 in 10.0 mi South 19.6 mph 28.8 mph N/A   Scattered Clouds
1:35 PM 84.2 °F 92.3 °F 75.2 °F 74% 29.71 in 9.0 mi South 24.2 mph 31.1 mph N/A   Scattered Clouds
1:55 PM 86.0 °F 95.1 °F 75.2 °F 70% 29.70 in 9.0 mi South 25.3 mph 31.1 mph N/A   Scattered Clouds
2:15 PM 86.0 °F 95.1 °F 75.2 °F 70% 29.70 in 9.0 mi South 20.7 mph 28.8 mph N/A   Scattered Clouds
2:35 PM 87.8 °F 97.6 °F 75.2 °F 66% 29.69 in 9.0 mi South 19.6 mph 31.1 mph N/A   Scattered Clouds
2:55 PM 87.8 °F 97.6 °F 75.2 °F 66% 29.69 in 9.0 mi South 18.4 mph 26.5 mph N/A   Mostly Cloudy
3:15 PM 87.8 °F 97.6 °F 75.2 °F 66% 29.69 in 10.0 mi South 23.0 mph 32.2 mph N/A   Partly Cloudy
3:35 PM 87.8 °F 97.6 °F 75.2 °F 66% 29.68 in 9.0 mi South 21.9 mph 33.4 mph N/A   Scattered Clouds
3:55 PM 87.8 °F 97.6 °F 75.2 °F 66% 29.68 in 9.0 mi South 20.7 mph 29.9 mph N/A   Partly Cloudy
4:15 PM 87.8 °F 97.6 °F 75.2 °F 66% 29.68 in 10.0 mi South 21.9 mph 29.9 mph N/A   Scattered Clouds
4:35 PM 89.6 °F 99.8 °F 75.2 °F 62% 29.69 in 10.0 mi SSW 20.7 mph - N/A   Scattered Clouds
4:55 PM 87.8 °F 97.6 °F 75.2 °F 66% 29.69 in 9.0 mi South 24.2 mph - N/A   Partly Cloudy
5:15 PM 87.8 °F 97.6 °F 75.2 °F 66% 29.70 in 9.0 mi South 17.3 mph 26.5 mph N/A   Partly Cloudy
5:35 PM 87.8 °F 99.7 °F 77.0 °F 70% 29.70 in 9.0 mi South 17.3 mph 25.3 mph N/A   Scattered Clouds
5:55 PM 87.8 °F 97.6 °F 75.2 °F 66% 29.69 in 9.0 mi South 24.2 mph - N/A   Scattered Clouds
6:15 PM 87.8 °F 97.6 °F 75.2 °F 66% 29.69 in 9.0 mi South 19.6 mph - N/A   Partly Cloudy
6:35 PM 87.8 °F 97.6 °F 75.2 °F 66% 29.70 in 10.0 mi South 18.4 mph - N/A   Clear
6:55 PM 86.0 °F 95.1 °F 75.2 °F 70% 29.70 in 10.0 mi South 15.0 mph 25.3 mph N/A   Scattered Clouds
7:15 PM 86.0 °F 95.1 °F 75.2 °F 70% 29.71 in 9.0 mi South 17.3 mph 25.3 mph N/A   Mostly Cloudy
7:35 PM 86.0 °F 96.9 °F 77.0 °F 74% 29.71 in 10.0 mi South 16.1 mph - N/A   Scattered Clouds
7:55 PM 84.2 °F 94.1 °F 77.0 °F 79% 29.71 in 10.0 mi South 13.8 mph 19.6 mph N/A   Partly Cloudy
8:15 PM 84.2 °F 94.1 °F 77.0 °F 79% 29.71 in 10.0 mi South 15.0 mph - N/A   Partly Cloudy
8:35 PM 84.2 °F 92.3 °F 75.2 °F 74% 29.71 in 9.0 mi SSE 17.3 mph - N/A   Scattered Clouds
8:55 PM 82.4 °F 89.5 °F 75.2 °F 79% 29.71 in 10.0 mi SSE 18.4 mph - N/A   Mostly Cloudy
9:15 PM 82.4 °F 90.9 °F 77.0 °F 84% 29.71 in 9.0 mi SSE 17.3 mph - N/A   Mostly Cloudy
9:35 PM 82.4 °F 90.9 °F 77.0 °F 84% 29.73 in 10.0 mi South 15.0 mph - N/A   Unknown
9:55 PM 80.6 °F 86.2 °F 75.2 °F 84% 29.75 in 10.0 mi SSE 15.0 mph - N/A   Clear
10:15 PM 80.6 °F 86.2 °F 75.2 °F 84% 29.76 in 10.0 mi SSE 15.0 mph - N/A   Clear
10:35 PM 80.6 °F 86.2 °F 75.2 °F 84% 29.76 in 10.0 mi SSE 16.1 mph - N/A   Clear
10:55 PM 78.8 °F - 75.2 °F 89% 29.76 in 10.0 mi SSE 16.1 mph - N/A   Clear
11:15 PM 78.8 °F - 75.2 °F 89% 29.77 in 10.0 mi SSE 13.8 mph - N/A   Unknown
11:35 PM 78.8 °F - 75.2 °F 89% 29.76 in 10.0 mi South 15.0 mph 21.9 mph N/A   Unknown